Terminal Aerodrome Forecast
Issued by NWS

Current Version | Previous Version | Graphics & Text | Print | Product List | Glossary On
Versions: 1 2 3 4 5 6 7 8 9 10 11 12 13 14 15 16
184
FTUS41 KPBZ 251725
TAFHLG
TAF
KHLG 251725Z 2518/2618 25012G18KT P6SM BKN050
     FM252300 VRB04KT P6SM BKN090
     FM261400 15008KT P6SM VCSH OVC050
     FM261700 17009KT P6SM -SHRA OVC050=

USA.gov is the U.S. government's official web portal to all federal, state and local government web resources and services.